CZ-6A DEB, 54541

Orbit data source: Space-Track

CZ-6A DEB, 54541 is space debris in SSO originally from a launch on Fri, 11 Nov 2022 UTC launched from the Taiyaun Space Center, China (TSC). Debris objects in space refer to the collection of defunct objects orbiting the Earth. Examples of debris include non-operational satellites, rocket bodies, and fragments generated from explosions, collisions, or faulty payload assembly.

Loading next visibility...
Identifier
54541, 2022-151KR
Orbit
SSO
Country
Flag of CNCN / PRC
Related business
Manufacturer
SAST
Mission
Spacecraft
Bus & Motor
Unknown
Mass
Unknown
Launch date (UTC)
2022-11-11 (3 years ago)
Launch vehicle
Unknown
Launch site
Taiyaun Space Center, China (TSC)
Object type
Payload
Rocket body
Debris
Shape & HBR
Unknown shape, 0.6 m
Radar Cross Section
Medium (>0.1 m² and <1 m²)

Expand to show TLE details & history
Last TLE update: 5 hours ago

TLE from 5 hours ago
0 CZ-6A DEB
1 54541U 22151KR  26130.48334096  .00000333  00000-0  22004-3 0  9999
2 54541  98.8621 126.9090 0061819 111.7758 249.0004 14.07310279179063
Epoch: 2026-05-10T11:36Z
TLE epoch observation values (Epoch: 2026-05-10T11:36:00.658Z)
Latitude
-0.0001°
Longitude
84.6205°
Altitude
887.781 km
Speed
7.4 km/s
True Right ascension
08h 27m 38s
True Declination
0° 00' 00"
Sunlit
Object was in daylight at epoch
Visualization orbit readout
Latitude
Unknown
Longitude
Unknown
Altitude
Unknown
Speed
Unknown
Apparent Right ascension
Unknown
Apparent Declination
Unknown
Sunlit
N/A
Visualization observer readout
Local Sidereal Time
01:08:23
Azimuth
Unknown
Elevation
Unknown
Doppler factor
Unknown
Orbital elements
Apogee altitude
910.554 km
Perigee altitude
820.992 km
Semi-major axis
7,243.91 km
Eccentricity
0.00618
Inclination
98.8621°
RAAN
126.909°
Arg. of periapsis
111.7758°
True anomaly
248.3409°
Mean anomaly
249.0004°
Eccentric anomaly
248.67046°
Mean motion
3.52033 °/min
Orbital period
102.26 mins
BSTAR
0.00022004
Loading maneuver chart data...
Computing Atmospheric mass density...
Loading historical data...
Loading historical data...
Loading historical data...
Loading historical data...
Loading historical data...
Loading historical data...
Loading historical data...

Documentation

Showing up to 5 results
|